Retour au catalogue

STARLINK-34535

ActifCommunicationsVLEO
NORAD 64698·PAYLOAD·🇺🇸 United States

Lancé Jun 28, 2025 depuis Vandenberg Space Force Base

Loading…

Prochains Passages (prochaines 24 heures)

TLE

FraisSource: CelesTrak SupGP

Époque: Sep 14, 2026, 21:18 UTC

1 64698C 25142C   26257.88798611 -.00002234  00000+0 -77703-4 0  2574
2 64698  70.0015 195.8427 0003123 263.6622 321.2253 15.29589744    13

Suivez STARLINK-34535 en temps réel avec AllMySat

Download on the App Store